Location: Aniagüita
(10.0946°N, 66.9708°W)
Time: 16:09:32
(UTC+00:00)

YAOGAN 1 - Pass Details

Date: 30 June 2022
Orbit: 617 x 619 km, 97.9° (Epoch: 06 August)

Event Time Altitude Azimuth Distance (km) Brightness Sun altitude
Rises 23:08:31 0° 150° (SSE) 2,884 5.5 -4.4°
Reaches altitude 10° 23:10:52 10° 140° (SE) 1,978 4.6 -4.9°
Maximum altitude 23:14:42 32° 77° (ENE) 1,068 3.4 -5.7°
Drops below altitude 10° 23:18:32 10° 14° (NNE) 1,977 5.3 -6.6°
Sets 23:20:53 0° 4° (N) 2,882 6.3 -7.1°
